Location: Riverside
(39.1734°N, 77.8561°W)
Time: 15:49:10
(UTC+00:00)

BEESAT 3 - Visible Passes

Search period start: 25 May 2019 00:00
Search period end: 04 June 2019 00:00
Orbit: 486 x 525 km, 64.9° (Epoch: 24 May)

Date Brightness Start Highest point End Pass type
(mag) Time Alt. Az. Time Alt. Az. Time Alt. Az.
25 May ? 05:41:38 10° NNW 05:43:50 29° N 05:43:50 29° N visible
26 May ? 05:22:39 10° NNW 05:24:50 28° N 05:24:50 28° N visible
27 May ? 05:03:40 10° NNW 05:05:55 28° N 05:05:55 28° N visible
28 May ? 04:44:41 10° NNW 04:47:03 29° N 04:47:03 29° N visible
29 May ? 04:25:42 10° NNW 04:28:15 30° NNE 04:28:15 30° NNE visible
30 May ? 04:06:43 10° NNW 04:09:29 31° NNE 04:09:29 31° NNE visible
31 May ? 03:47:44 10° NNW 03:50:46 32° NNE 03:50:46 32° NNE visible
01 Jun ? 03:28:45 10° NNW 03:32:06 32° NE 03:32:06 32° NE visible
01 Jun ? 05:06:36 10° WNW 05:06:51 11° WNW 05:06:51 11° WNW visible
02 Jun ? 03:09:46 10° NNW 03:13:19 30° NE 03:13:28 30° NE visible
02 Jun ? 04:47:30 10° WNW 04:48:13 13° WNW 04:48:13 13° WNW visible
03 Jun ? 02:50:47 10° N 02:54:17 29° NE 02:54:52 28° ENE visible
03 Jun ? 04:28:25 10° WNW 04:29:37 16° WNW 04:29:37 16° WNW visible
